Current Version              Previous Version:    01  02  03  04  05  06  07  08  09  10  11  12  13  14  15  16  17  18  19  20  21  22  23  24  25  26  27  28  29  30  
   31  32  33  34  35  36  37  38  39  40  41  42  43  44  45  46  47  48  49  50  51  52  53  54  55  56  57  58  59  60  

[Printable]
639
ASUS44 KEWX 270110
RWRTX
SOUTH TEXAS REGIONAL WEATHER ROUNDUP
NATIONAL WEATHER SERVICE AUSTIN/SAN ANTONIO TX
700 PM CST MON JAN 26 2015

NOTE: "FAIR" INDICATED FEW OR NO CLOUDS BELOW 12,000 FEET WITH NO
SIGNIFICANT WEATHER AND/OR OBSTRUCTIONS TO VISIBILITY.

* - THESE STATIONS ARE NOT NWS OR FAA STATIONS...AND ARE NOT SUBJECT
    TO NWS AND FAA QUALITY CONTROL.

TXZ171-172-183>190-270200-
TEXAS HILL COUNTRY AND EDWARDS PLATEAU

CITY           SKY/WX    TMP DP  RH WIND       PRES   REMARKS
JUNCTION       CLOUDY    58  36  43 NW6       30.21R
*LLANO         MOCLDY    61  37  41 W3        30.21S
BURNET         MOCLDY    53  40  61 SW3       30.19R
*HORSESHOE BAY MOCLDY    59  35  40 CALM      30.18R
*KERRVILLE     CLOUDY    56  37  48 N3        30.21R
*FREDERICKSBRG MOCLDY    53  37  56 N3        30.20R
*ROCKSPRINGS   CLOUDY    57  32  38 SW3       30.25S
*BOERNE STAGE  MOCLDY    55  34  44 W5        30.21R
*CASTROVILLE   MOCLDY    59  39  47 W7        30.22R
HONDO          CLOUDY    59  40  49 W7        30.22S
*UVALDE        CLOUDY    60  38  44 CALM      30.23R
DEL RIO        MOCLDY    60  38  43 N6        30.21R
LAUGHLIN AFB   MOCLDY    59  40  50 N6        30.21S
CARRIZO SPRGS  CLOUDY    59  43  55 S3        30.20R
$$

TXZ173-191>194-202-209-217>225-228-270200-
CENTRAL AND SOUTH CENTRAL TEXAS

CITY           SKY/WX    TMP DP  RH WIND       PRES   REMARKS
GEORGETOWN     CLEAR     61  39  44 W5        30.15S
AUSTIN/BERGSTM MOCLDY    56  44  64 SW3       30.17R
AUSTIN/MABRY   MOCLDY    60  42  51 SW3       30.18R
*AUSTIN/EXEC   MOCLDY    61  36  39 SW6       30.17R
*LAGO VISTA    MOCLDY    65  35  32 W3        30.18S
SAN MARCOS     MOCLDY    57  46  67 CALM      30.18R
NEW BRAUNFELS  MOCLDY    59  40  49 W8        30.17R HAZE
RANDOLPH AFB   MOCLDY    64  33  31 SW6       30.19R
PT SAN ANTONIO MOCLDY    61  39  44 SW2       30.18R
SAN ANTONIO    MOCLDY    65  37  35 SW8       30.19S
STINSON FIELD  CLOUDY    63  38  39 SW5       30.18R
*PLEASANTON    CLOUDY    57  40  54 SW5       30.21R
*LA GRANGE     MOCLDY    63  45  50 SW6       30.15R
*GIDDINGS      NOT AVBL
*GONZALES      MOCLDY    62  42  48 S3        30.17S
$$

TXZ163>164-176>182-195>201-210>213-226-227-235-270200-
SOUTHEAST TEXAS

CITY           SKY/WX    TMP DP  RH WIND       PRES   REMARKS
COLLEGE STN    MOCLDY    57  43  59 CALM      30.14S
*BRYAN         MOCLDY    54  42  65 S3        30.15S
*CALDWELL      MOCLDY    61  36  39 CALM      30.18R
*CROCKETT      MOCLDY    55  41  58 CALM      30.15S
*BRENHAM       MOCLDY    62  40  44 CALM      30.16R
HUNTSVILLE     MOCLDY    56  39  53 S3        30.13S
CONROE         MOCLDY    49  43  80 CALM      30.15S
HOUSTON BUSH   MOCLDY    52  41  66 CALM      30.15R
HOUSTON HOBBY  MOCLDY    59  39  47 S3        30.16R
*HOUSTON SW AP MOCLDY    56  41  56 CALM      30.17R
PEARLAND       MOCLDY    60  40  47 S8        30.17R
HOUSTON HOOKS  MOCLDY    53  41  63 CALM      30.15R
ELLINGTON FLD  NOT AVBL
SUGAR LAND     MOCLDY    60  41  49 SW3       30.16R
*HOUSTON EXEC    N/A    N/A N/A N/A MISG        N/A
*CLEVELAND MUN NOT AVBL
*WHARTON       MOCLDY    58  48  69 S5        30.18S
*COLUMBUS      FAIR      58  45  60 SW3       30.16R
$$

TXZ214>216-236>238-270200-
THE UPPER TEXAS COAST

CITY           SKY/WX    TMP DP  RH WIND       PRES   REMARKS
*ORANGE        MOCLDY    51  41  69 CALM      30.15R
PORT ARTHUR    MOCLDY    55  38  52 W6        30.14R
GALVESTON      MOCLDY    56  50  80 SW9       30.18R
ANGLETON       MOCLDY    52  45  77 CALM      30.17R
*BAY CITY      MOCLDY    55  50  81 SW6       30.18R
PALACIOS       MOCLDY    56  50  80 S7        30.19R
$$

TXZ229>234-239>247-270200-
TEXAS COASTAL BEND AND RIO GRANDE PLAINS

CITY           SKY/WX    TMP DP  RH WIND       PRES   REMARKS
VICTORIA       MOCLDY    60  42  51 SW5       30.19R
*BEEVILLE      MOCLDY    67  34  30 NW5       30.20R
ROCKPORT       CLOUDY    58  40  51 S6        30.20R
*PORT ARANSAS  MOCLDY    55  50  81 S6        30.20R
*PORT LAVACA   MOCLDY    56  49  75 S7        30.20R
*INGLESIDE     CLOUDY    57  44  62 S5        30.20R
CORPUS CHRISTI CLOUDY    57  47  69 S8        30.20R
CORPUS NAS     CLOUDY    56  47  71 S6        30.21R
*ROBSTOWN      NOT AVBL
ALICE          CLOUDY    63  42  46 SE7       30.20R
KINGSVILLE NAS CLOUDY    60  45  57 SE7       30.21R
COTULLA        CLOUDY    67  34  29 CALM      30.21R
*FAITH RANCH   CLOUDY    61  45  55 CALM      30.21R
LAREDO         CLEAR     64  41  42 S3        30.23
$$

TXZ248>255-270200-
DEEP SOUTH TEXAS

CITY           SKY/WX    TMP DP  RH WIND       PRES   REMARKS
BROWNSVILLE    CLOUDY    62  43  49 E6        30.23R
PORT ISABEL    CLOUDY    60  50  69 SE7       30.22R
*SOUTH PADRE   CLOUDY   N/A N/A N/A CALM      30.23R
HARLINGEN      CLOUDY    61  44  53 SE8       30.21R
*HEBBRONVILLE  CLOUDY    66  35  31 CALM      30.22R
MCALLEN        CLOUDY    65  45  48 SE5       30.22R
*WESLACO       CLOUDY    67  37  32 SE3       30.21S
FALFURRIAS     CLOUDY    64  39  40 E6        30.20R
EDINBURG       CLOUDY    68  36  30 S3        30.22R
*ZAPATA        CLOUDY    63  36  37 CALM      30.20S
$$

TXZ213>215-236>238-242>244-246-247-251-254-255-270200-
CMAN STATIONS

STATION/POSITION TIME  TEMP    WIND        PRES    WAVE
                       AIR SEA DIR/SP/G            HT/PER
                 (UTC) (F)     (DEG/KT/KT) (MB)    (FT/S)
SEA RIM ST PARK  0100   53     250/  7/  8 1021.5
NORTH JETTY/GLS  0100   57 56  250/  9/ 10   N/A
EAGLE POINT      0100   61 56  260/  4/  5 1021.3
MORGANS POINT    0100   63     270/  1/  1 1021.1
PORT O`CONNOR    0100          210/  7/  8   N/A
PORT ARANSAS     0100   57 58  180/  6/  7 1023.5
MALAQUITE BEACH  0100   58 58  180/  7/  8 1022.3
BAFFIN BAY       0100   59     150/  5/  6 1023.0
PORT ISABEL      0100   60 57  110/  3/  4 1023.4
$$

GMZ080-GMZ150>470-270200-
OFFSHORE BUOY REPORTS

STATION/POSITION TIME  TEMP    WIND        PRES    WAVE
                       AIR SEA DIR/SP/G            HT/PER
                 (UTC) (F)     (DEG/KT/KT) (MB)    (FT/S)
20 E GALVESTON   0100   56 56  220/ 10/ 12 1021.2    1
90 E PT ARANSAS  0100   64 69  260/ 10/ 12 1023.1    1
35 NE PT MANSFLD 0100   65 68  200/  6/  8 1023.1    1/ 5
200 E PT ISABEL  0100   67 72  330/ 12/ 16 1022.3    4/ 6
$$